TimeCDT,TemperatureF,Dew PointF,Humidity,Sea Level PressureIn,VisibilityMPH,Wind Direction,Wind SpeedMPH,Gust SpeedMPH,PrecipitationIn,Events,Conditions,WindDirDegrees,DateUTC
12:53 AM,64.0,51.1,63,29.79,10.0,South,8.1,-,N/A,,Clear,180,2013-10-01 05:53:00
1:53 AM,61.0,51.1,70,29.79,10.0,South,5.8,-,N/A,,Clear,180,2013-10-01 06:53:00
2:53 AM,57.0,50.0,77,29.80,10.0,South,6.9,-,N/A,,Clear,180,2013-10-01 07:53:00
3:53 AM,61.0,51.1,70,29.79,10.0,South,9.2,-,N/A,,Clear,180,2013-10-01 08:53:00
4:53 AM,57.9,50.0,75,29.80,10.0,South,5.8,-,N/A,,Clear,180,2013-10-01 09:53:00
5:53 AM,60.1,50.0,69,29.82,10.0,Calm,Calm,-,N/A,,Clear,0,2013-10-01 10:53:00
6:53 AM,55.0,50.0,83,29.84,10.0,South,5.8,-,N/A,,Clear,170,2013-10-01 11:53:00
7:53 AM,57.0,50.0,77,29.87,10.0,Calm,Calm,-,N/A,,Clear,0,2013-10-01 12:53:00
8:53 AM,63.0,53.1,70,29.90,10.0,Calm,Calm,-,N/A,,Clear,0,2013-10-01 13:53:00
9:53 AM,66.9,54.0,63,29.92,10.0,Calm,Calm,-,N/A,,Clear,0,2013-10-01 14:53:00
10:53 AM,73.0,54.0,51,29.92,10.0,SSE,6.9,-,N/A,,Clear,160,2013-10-01 15:53:00
11:53 AM,79.0,55.0,44,29.91,10.0,SSE,8.1,-,N/A,,Clear,160,2013-10-01 16:53:00
12:53 PM,82.0,55.0,39,29.91,10.0,SSW,4.6,-,N/A,,Clear,200,2013-10-01 17:53:00
1:53 PM,84.9,55.9,37,29.89,10.0,South,9.2,-,N/A,,Clear,190,2013-10-01 18:53:00
2:53 PM,86.0,57.0,37,29.87,10.0,South,9.2,-,N/A,,Clear,180,2013-10-01 19:53:00
3:53 PM,87.1,57.0,36,29.86,10.0,SSE,13.8,19.6,N/A,,Clear,150,2013-10-01 20:53:00
4:53 PM,87.1,57.9,37,29.85,10.0,SE,11.5,-,N/A,,Clear,140,2013-10-01 21:53:00
5:53 PM,86.0,57.9,38,29.85,10.0,SSE,11.5,-,N/A,,Clear,150,2013-10-01 22:53:00
6:53 PM,82.0,57.9,44,29.86,10.0,SE,10.4,-,N/A,,Clear,140,2013-10-01 23:53:00
7:53 PM,77.0,59.0,54,29.88,10.0,ESE,8.1,-,N/A,,Clear,120,2013-10-02 00:53:00
8:53 PM,73.9,61.0,64,29.89,10.0,SE,8.1,-,N/A,,Clear,130,2013-10-02 01:53:00
9:53 PM,71.1,60.1,68,29.90,10.0,SE,6.9,-,N/A,,Clear,140,2013-10-02 02:53:00
10:53 PM,69.1,60.1,73,29.90,10.0,SE,6.9,-,N/A,,Clear,130,2013-10-02 03:53:00
11:53 PM,69.1,60.1,73,29.90,10.0,SE,6.9,-,N/A,,Clear,130,2013-10-02 04:53:00